GW5755 Weather Reports


time (UTC)temp
C
wind
direction
speed
KPH
gust
KPH
rain 1hr
cm
rain 24hr
cm
rain mn
cm
humidity
%
barometer
mb
20260508163001 26 297 9.7 16.1 0.00 0.00 0.00 56 1009.4
20260508162458 26 306 9.7 20.9 0.00 0.00 0.00 55 1009.4
20260508161955 26 282 14.5 17.7 0.00 0.00 0.00 56 1009.0
20260508161452 26 316 16.1 24.1 0.00 0.00 0.00 54 1009.1
20260508160949 26 319 24.1 27.4 0.00 0.00 0.00 53 1009.4
20260508160448 26 323 14.5 20.9 0.00 0.00 0.00 54 1008.8
20260508155944 26 311 22.5 25.7 0.00 0.00 0.00 54 1009.3
20260508155441 26 285 14.5 17.7 0.00 0.00 0.00 52 1009.2
20260508154938 27 311 17.7 27.4 0.00 0.00 0.00 51 1009.1
20260508154436 27 307 16.1 22.5 0.00 0.00 0.00 50 1009.2
20260508153932 28 284 14.5 20.9 0.00 0.00 0.00 47 1008.8
20260508153429 28 310 17.7 22.5 0.00 0.00 0.00 43 1009.0
20260508152925 28 299 22.5 25.7 0.00 0.00 0.00 42 1009.1
20260508152422 28 316 30.6 35.4 0.00 0.00 0.00 41 1009.0
20260508151918 28 312 24.1 33.8 0.00 0.00 0.00 40 1009.0
20260508151415 28 315 27.4 30.6 0.00 0.00 0.00 39 1009.2
20260508150911 28 317 30.6 33.8 0.00 0.00 0.00 40 1009.0
20260508150409 28 299 16.1 25.7 0.00 0.00 0.00 44 1009.2
20260508145905 30 296 17.7 22.5 0.00 0.00 0.00 43 1008.8
20260508145401 31 319 14.5 27.4 0.00 0.00 0.00 28 1009.1
20260508144858 31 349 20.9 24.1 0.00 0.00 0.00 29 1009.0
20260508144356 32 312 22.5 30.6 0.00 0.00 0.00 29 1008.9
20260508143853 32 8 27.4 29.0 0.00 0.00 0.00 27 1009.0
20260508143350 32 16 27.4 35.4 0.00 0.00 0.00 27 1009.0
20260508142846 32 350 32.2 37.0 0.00 0.00 0.00 26 1009.0
20260508142343 32 358 37.0 40.2 0.00 0.00 0.00 26 1008.8
20260508141840 32 347 30.6 38.6 0.00 0.00 0.00 26 1008.9
20260508141337 32 352 24.1 33.8 0.00 0.00 0.00 25 1009.0
20260508140834 32 338 32.2 35.4 0.00 0.00 0.00 24 1009.0
20260508140331 33 350 32.2 37.0 0.00 0.00 0.00 25 1009.0
20260508135826 33 336 30.6 35.4 0.00 0.00 0.00 24 1008.9
20260508135323 33 348 33.8 38.6 0.00 0.00 0.00 24 1009.0
20260508134819 33 349 32.2 35.4 0.00 0.00 0.00 24 1009.1
20260508134316 33 1 27.4 35.4 0.00 0.00 0.00 24 1009.1
20260508133813 33 347 30.6 37.0 0.00 0.00 0.00 24 1009.0
20260508133311 33 358 33.8 38.6 0.00 0.00 0.00 24 1009.0
20260508132808 33 358 33.8 38.6 0.00 0.00 0.00 24 1009.3
20260508132306 33 358 33.8 38.6 0.00 0.00 0.00 24 1009.2
20260508131801 33 351 33.8 37.0 0.00 0.00 0.00 24 1009.2
20260508131257 33 351 33.8 37.0 0.00 0.00 0.00 24 1009.5
20260508130754 33 354 25.7 33.8 0.00 0.00 0.00 24 1009.3
20260508130251 33 340 35.4 38.6 0.00 0.00 0.00 24 1009.2
20260508125747 33 356 29.0 37.0 0.00 0.00 0.00 25 1009.5
20260508125243 32 0 27.4 37.0 0.00 0.00 0.00 25 1009.3
20260508124742 32 337 29.0 37.0 0.00 0.00 0.00 25 1009.7
20260508124238 32 328 24.1 35.4 0.00 0.00 0.00 27 1009.6
20260508123737 32 353 35.4 38.6 0.00 0.00 0.00 27 1009.6
20260508123235 32 347 33.8 43.5 0.00 0.00 0.00 26 1009.9
20260508122730 32 346 37.0 40.2 0.00 0.00 0.00 26 1009.7
20260508122227 32 346 38.6 41.8 0.00 0.00 0.00 26 1009.9
20260508121725 32 353 45.1 49.9 0.00 0.00 0.00 26 1009.9
20260508121224 32 6 37.0 48.3 0.00 0.00 0.00 26 1009.7
20260508120720 32 345 41.8 46.7 0.00 0.00 0.00 26 1009.9
20260508120219 32 350 41.8 43.5 0.00 0.00 0.00 26 1010.3
20260508115716 32 351 35.4 46.7 0.00 0.00 0.00 26 1010.4
20260508115213 32 335 37.0 40.2 0.00 0.00 0.00 26 1010.3
20260508114709 32 335 37.0 41.8 0.00 0.00 0.00 27 1010.3
20260508114206 32 1 33.8 48.3 0.00 0.00 0.00 27 1010.2
20260508113703 32 344 37.0 43.5 0.00 0.00 0.00 27 1010.3
20260508113201 32 340 32.2 43.5 0.00 0.00 0.00 27 1010.1
20260508112657 32 347 35.4 41.8 0.00 0.00 0.00 27 1010.3
20260508112154 31 27 37.0 43.5 0.00 0.00 0.00 26 1010.4
20260508111650 31 344 38.6 43.5 0.00 0.00 0.00 27 1010.5
20260508111148 31 9 38.6 46.7 0.00 0.00 0.00 29 1010.3
20260508110646 31 357 35.4 46.7 0.00 0.00 0.00 27 1010.6
20260508110143 31 336 40.2 49.9 0.00 0.00 0.00 27 1010.6
20260508105638 31 346 40.2 49.9 0.00 0.00 0.00 28 1010.6
20260508105135 31 344 37.0 43.5 0.00 0.00 0.00 28 1010.5
20260508104632 31 348 40.2 43.5 0.00 0.00 0.00 28 1010.6
20260508104129 31 351 40.2 43.5 0.00 0.00 0.00 28 1010.8
20260508103626 31 347 38.6 41.8 0.00 0.00 0.00 27 1010.6
20260508103123 31 352 35.4 46.7 0.00 0.00 0.00 28 1010.6
20260508102620 31 346 38.6 43.5 0.00 0.00 0.00 29 1010.8
20260508102118 31 344 37.0 48.3 0.00 0.00 0.00 29 1011.1
20260508101615 31 350 40.2 49.9 0.00 0.00 0.00 28 1010.9
20260508101112 31 347 41.8 49.9 0.00 0.00 0.00 30 1010.9
20260508100610 30 340 41.8 51.5 0.00 0.00 0.00 30 1010.8
20260508100107 30 350 43.5 53.1 0.00 0.00 0.00 30 1010.9
20260508095604 30 350 41.8 53.1 0.00 0.00 0.00 31 1011.1
20260508095100 30 344 48.3 53.1 0.00 0.00 0.00 30 1010.9
20260508094558 30 351 46.7 51.5 0.00 0.00 0.00 31 1011.3
20260508094054 30 348 43.5 53.1 0.00 0.00 0.00 32 1011.3
20260508093552 30 8 40.2 49.9 0.00 0.00 0.00 32 1011.4
20260508093050 30 338 46.7 51.5 0.00 0.00 0.00 31 1011.3
20260508092546 30 349 46.7 54.7 0.00 0.00 0.00 32 1011.2
20260508092045 30 347 45.1 49.9 0.00 0.00 0.00 31 1011.5
20260508091542 29 11 45.1 49.9 0.00 0.00 0.00 33 1011.4
20260508091039 28 358 33.8 49.9 0.00 0.00 0.00 33 1011.4
20260508090537 28 342 53.1 57.9 0.00 0.00 0.00 33 1011.3
20260508090033 28 344 51.5 56.3 0.00 0.00 0.00 33 1011.2
20260508085530 28 336 46.7 64.4 0.00 0.00 0.00 34 1011.1
20260508085027 28 352 48.3 57.9 0.00 0.00 0.00 35 1011.3
20260508084524 28 346 40.2 56.3 0.00 0.00 0.00 36 1011.3
20260508084021 27 353 49.9 57.9 0.00 0.00 0.00 36 1011.3
20260508083518 27 348 53.1 64.4 0.00 0.00 0.00 37 1011.4
20260508083014 27 343 54.7 57.9 0.00 0.00 0.00 37 1011.3
20260508082510 27 334 45.1 56.3 0.00 0.00 0.00 38 1011.4
20260508082008 27 342 48.3 62.8 0.00 0.00 0.00 39 1011.3
20260508081505 27 351 49.9 61.2 0.00 0.00 0.00 37 1011.5
20260508081001 27 358 53.1 57.9 0.00 0.00 0.00 39 1011.4
20260508080459 27 355 54.7 64.4 0.00 0.00 0.00 37 1011.5
20260508075956 27 349 53.1 62.8 0.00 0.00 0.00 36 1011.6
20260508075453 27 346 51.5 61.2 0.00 0.00 0.00 34 1011.4
20260508074951 27 343 48.3 54.7 0.00 0.00 0.00 36 1011.5
20260508074449 27 340 51.5 56.3 0.00 0.00 0.00 35 1011.4
20260508073945 27 348 46.7 56.3 0.00 0.00 0.00 35 1011.6
20260508073442 27 341 57.9 64.4 0.00 0.00 0.00 35 1011.6
20260508072939 27 345 48.3 53.1 0.00 0.00 0.00 36 1011.5
20260508072435 26 355 46.7 54.7 0.00 0.00 0.00 38 1011.4
20260508071933 26 348 40.2 54.7 0.00 0.00 0.00 42 1011.5
20260508071431 26 352 48.3 56.3 0.00 0.00 0.00 42 1011.5
20260508070928 26 323 35.4 48.3 0.00 0.00 0.00 44 1011.8
20260508070426 26 351 29.0 49.9 0.00 0.00 0.00 45 1011.8
20260508065923 25 334 43.5 49.9 0.00 0.00 0.00 46 1011.8
20260508065421 25 351 43.5 51.5 0.00 0.00 0.00 46 1011.4
20260508064919 25 26 51.5 61.2 0.00 0.00 0.00 45 1011.4
20260508064416 25 359 46.7 53.1 0.00 0.00 0.00 45 1011.6
20260508063914 25 345 49.9 54.7 0.00 0.00 0.00 44 1011.5
20260508063412 25 349 46.7 54.7 0.00 0.00 0.00 45 1011.4
20260508062909 25 353 43.5 51.5 0.00 0.00 0.00 46 1011.5
20260508062406 25 357 49.9 56.3 0.00 0.00 0.00 45 1011.4
20260508061903 25 338 53.1 56.3 0.00 0.00 0.00 47 1011.4
20260508061401 25 343 48.3 54.7 0.00 0.00 0.00 47 1011.5
20260508060857 24 342 37.0 43.5 0.00 0.00 0.00 50 1011.5
20260508060355 25 339 48.3 51.5 0.00 0.00 0.00 49 1011.4
20260508055855 24 331 45.1 51.5 0.00 0.00 0.00 51 1011.5
20260508055353 23 328 43.5 48.3 0.00 0.00 0.00 52 1011.3
20260508054849 24 343 46.7 56.3 0.00 0.00 0.00 52 1011.2
20260508054347 24 344 46.7 54.7 0.00 0.00 0.00 50 1011.5
20260508053843 24 349 40.2 43.5 0.00 0.00 0.00 50 1011.2
20260508053341 23 327 45.1 53.1 0.00 0.00 0.00 50 1010.9
20260508052838 23 334 48.3 57.9 0.00 0.00 0.00 51 1011.0
20260508052336 23 346 46.7 56.3 0.00 0.00 0.00 54 1011.1
20260508051832 23 337 48.3 56.3 0.00 0.00 0.00 53 1010.9
20260508051327 23 344 48.3 54.7 0.00 0.00 0.00 52 1010.8
20260508050824 23 342 38.6 48.3 0.00 0.00 0.00 53 1011.0
20260508050321 23 350 48.3 54.7 0.00 0.00 0.00 52 1011.1
20260508045816 22 351 56.3 64.4 0.00 0.00 0.00 52 1010.3
20260508045315 22 334 49.9 56.3 0.00 0.00 0.00 54 1010.8
20260508044812 22 342 49.9 61.2 0.00 0.00 0.00 55 1010.8
20260508044308 22 344 38.6 49.9 0.00 0.00 0.00 55 1010.8
20260508043804 22 348 45.1 54.7 0.00 0.00 0.00 55 1010.8
20260508043302 22 342 51.5 61.2 0.00 0.00 0.00 54 1010.9
20260508042758 22 339 48.3 53.1 0.00 0.00 0.00 56 1010.9
20260508042256 22 350 46.7 54.7 0.00 0.00 0.00 56 1011.0
20260508041753 22 354 54.7 62.8 0.00 0.00 0.00 56 1010.9
20260508041249 22 351 51.5 54.7 0.00 0.00 0.00 56 1010.7
20260508040745 22 327 51.5 56.3 0.00 0.00 0.00 58 1011.0
20260508040243 22 324 37.0 41.8 0.00 0.00 0.00 57 1010.9
20260508035740 22 338 46.7 53.1 0.00 0.00 0.00 59 1010.8
20260508035238 21 325 45.1 57.9 0.00 0.00 0.00 58 1010.7
20260508034734 21 351 40.2 48.3 0.00 0.00 0.00 56 1010.7
20260508034231 21 343 57.9 62.8 0.00 0.00 0.00 56 1010.7
20260508033728 21 333 48.3 57.9 0.00 0.00 0.00 57 1010.6
20260508033227 21 334 49.9 54.7 0.00 0.00 0.00 57 1010.5
20260508032724 21 341 48.3 57.9 0.00 0.00 0.00 58 1010.4
20260508032221 21 341 54.7 57.9 0.00 0.00 0.00 57 1010.2
20260508031718 21 346 46.7 53.1 0.00 0.00 0.00 57 1010.8
20260508031214 21 347 48.3 56.3 0.00 0.00 0.00 55 1010.3
20260508030710 21 346 40.2 53.1 0.00 0.00 0.00 58 1010.6
20260508030208 21 359 46.7 64.4 0.00 0.00 0.00 57 1010.2
20260508025704 21 349 48.3 53.1 0.00 0.00 0.00 56 1010.2
20260508025202 21 342 40.2 48.3 0.00 0.00 0.00 57 1010.5
20260508024657 21 350 48.3 53.1 0.00 0.00 0.00 57 1010.3
20260508024155 21 338 48.3 53.1 0.00 0.00 0.00 56 1010.0
20260508023650 21 338 48.3 54.7 0.00 0.00 0.00 56 1010.3
20260508023149 21 346 48.3 53.1 0.00 0.00 0.00 56 1010.1
20260508022644 21 346 48.3 53.1 0.00 0.00 0.00 56 1010.0
20260508022141 22 350 59.5 66.0 0.00 0.00 0.00 55 1010.1
20260508021637 22 350 59.5 66.0 0.00 0.00 0.00 55 1009.9
20260508021133 22 340 54.7 67.6 0.00 0.00 0.00 56 1010.0
20260508020631 22 349 64.4 75.6 0.00 0.00 0.00 56 1009.9
20260508020128 22 339 51.5 72.4 0.00 0.00 0.00 57 1009.9
20260508015626 22 351 64.4 69.2 0.00 0.00 0.00 56 1010.0
20260508015122 22 345 53.1 61.2 0.00 0.00 0.00 56 1009.7
20260508014619 22 338 51.5 57.9 0.00 0.00 0.00 54 1010.0
20260508014115 22 312 57.9 75.6 0.00 0.00 0.00 55 1010.0
20260508013611 22 336 64.4 69.2 0.00 0.00 0.00 56 1009.9
20260508013108 22 351 51.5 66.0 0.00 0.00 0.00 56 1009.6
20260508012606 22 337 54.7 64.4 0.00 0.00 0.00 57 1009.8
20260508012103 22 342 59.5 66.0 0.00 0.00 0.00 57 1009.7
20260508011601 22 337 54.7 69.2 0.00 0.00 0.00 58 1010.0
20260508011058 22 339 61.2 66.0 0.00 0.00 0.00 59 1010.0
20260508010555 22 7 64.4 72.4 0.00 0.00 0.00 59 1009.7
20260508010053 22 326 53.1 67.6 0.00 0.00 0.00 57 1009.7
20260508005549 22 345 72.4 80.5 0.00 0.00 0.00 55 1009.8
20260508005046 22 342 59.5 67.6 0.00 0.00 0.00 54 1009.5
20260508004541 22 338 56.3 66.0 0.00 0.00 0.00 55 1009.8
20260508004038 22 325 57.9 69.2 0.00 0.00 0.00 55 1009.7
20260508003535 22 342 57.9 69.2 0.00 0.00 0.00 53 1009.7
20260508003033 22 339 61.2 66.0 0.00 0.00 0.00 54 1009.7
20260508002529 22 340 54.7 64.4 0.00 0.00 0.00 53 1010.1
20260508002026 22 340 64.4 67.6 0.00 0.00 0.00 54 1009.9
20260508001522 23 16 53.1 72.4 0.00 0.00 0.00 54 1010.0
20260508001018 23 20 54.7 61.2 0.00 0.00 0.00 53 1010.1
20260508000514 23 344 51.5 54.7 0.00 0.00 0.00 53 1010.1
20260508000012 23 347 48.3 62.8 0.00 0.00 0.00 52 1009.9
20260507235508 23 334 57.9 66.0 0.00 0.00 0.00 51 1010.0
20260507235006 23 345 48.3 54.7 0.00 0.00 0.00 52 1010.2
20260507234502 23 349 48.3 61.2 0.00 0.00 0.00 52 1010.2
20260507233958 23 344 57.9 69.2 0.00 0.00 0.00 51 1010.1
20260507233455 23 328 45.1 49.9 0.00 0.00 0.00 52 1010.0
20260507232954 23 321 53.1 64.4 0.00 0.00 0.00 51 1009.8
20260507232450 23 346 54.7 61.2 0.00 0.00 0.00 51 1009.9
20260507231947 23 335 46.7 51.5 0.00 0.00 0.00 51 1009.7
20260507231443 23 345 43.5 56.3 0.00 0.00 0.00 51 1009.8
20260507230940 23 336 49.9 53.1 0.00 0.00 0.00 50 1009.9
20260507230432 23 334 48.3 62.8 0.00 0.00 0.00 51 1009.8
20260507225932 23 342 48.3 61.2 0.00 0.00 0.00 50 1009.7
20260507225428 23 347 40.2 53.1 0.00 0.00 0.00 50 1009.8
20260507224925 23 346 48.3 54.7 0.00 0.00 0.00 49 1009.7
20260507224420 23 342 43.5 57.9 0.00 0.00 0.00 49 1009.8
20260507223917 23 346 48.3 54.7 0.00 0.00 0.00 49 1009.7
20260507223413 23 355 43.5 53.1 0.00 0.00 0.00 49 1009.9
20260507222910 23 341 45.1 48.3 0.00 0.00 0.00 49 1009.8
20260507222408 23 329 43.5 56.3 0.00 0.00 0.00 49 1009.9
20260507221904 23 346 51.5 56.3 0.00 0.00 0.00 49 1010.1
20260507221400 23 340 54.7 57.9 0.00 0.00 0.00 49 1010.1
20260507220856 24 347 45.1 54.7 0.00 0.00 0.00 48 1010.2
20260507220355 24 345 37.0 56.3 0.00 0.00 0.00 48 1010.2
20260507215852 24 349 51.5 61.2 0.00 0.00 0.00 48 1009.9
20260507215348 24 342 46.7 64.4 0.00 0.00 0.00 46 1010.3
20260507214845 24 342 46.7 56.3 0.00 0.00 0.00 47 1010.0
20260507214343 24 344 51.5 56.3 0.00 0.00 0.00 46 1009.8
20260507213843 25 338 49.9 57.9 0.00 0.00 0.00 47 1010.0
20260507213341 25 330 46.7 57.9 0.00 0.00 0.00 46 1010.3
20260507212838 24 338 45.1 53.1 0.00 0.00 0.00 47 1010.2
20260507212334 25 344 43.5 48.3 0.00 0.00 0.00 47 1010.4
20260507211830 25 333 40.2 51.5 0.00 0.00 0.00 47 1010.1
20260507211327 25 347 46.7 54.7 0.00 0.00 0.00 46 1010.3
20260507210824 25 343 51.5 54.7 0.00 0.00 0.00 47 1010.2
20260507210321 25 348 43.5 49.9 0.00 0.00 0.00 47 1009.9
20260507205818 25 344 40.2 43.5 0.00 0.00 0.00 47 1010.1
20260507205315 25 340 54.7 62.8 0.00 0.00 0.00 47 1010.1
20260507204810 25 352 41.8 48.3 0.00 0.00 0.00 47 1010.1
20260507204308 25 346 46.7 56.3 0.00 0.00 0.00 48 1010.3
20260507203806 25 350 43.5 48.3 0.00 0.00 0.00 48 1010.1
20260507203303 25 354 40.2 56.3 0.00 0.00 0.00 47 1010.1
20260507202759 25 338 43.5 51.5 0.00 0.00 0.00 47 1010.1
20260507202255 25 358 41.8 51.5 0.00 0.00 0.00 48 1010.3
20260507201750 25 346 41.8 49.9 0.00 0.00 0.00 46 1010.2
20260507201247 26 319 40.2 53.1 0.00 0.00 0.00 45 1010.3
20260507200743 26 334 38.6 48.3 0.00 0.00 0.00 43 1010.4
20260507200239 26 343 38.6 49.9 0.00 0.00 0.00 42 1010.4
20260507195735 26 338 45.1 48.3 0.00 0.00 0.00 41 1010.0
20260507195233 26 335 45.1 57.9 0.00 0.00 0.00 41 1010.4
20260507194730 26 346 40.2 49.9 0.00 0.00 0.00 41 1010.3
20260507194226 26 345 45.1 54.7 0.00 0.00 0.00 41 1010.2
20260507193723 26 348 48.3 56.3 0.00 0.00 0.00 42 1010.1
20260507193219 26 347 48.3 56.3 0.00 0.00 0.00 43 1010.2
20260507192716 26 329 41.8 57.9 0.00 0.00 0.00 44 1010.1
20260507192213 26 345 49.9 57.9 0.00 0.00 0.00 43 1010.1
20260507191708 26 343 49.9 56.3 0.00 0.00 0.00 43 1010.1
20260507191206 26 349 46.7 56.3 0.00 0.00 0.00 43 1009.7
20260507190702 26 327 46.7 56.3 0.00 0.00 0.00 44 1009.9
20260507190201 26 343 43.5 56.3 0.00 0.00 0.00 44 1010.0
20260507185659 26 346 46.7 53.1 0.00 0.00 0.00 43 1009.7
20260507185156 26 347 41.8 51.5 0.00 0.00 0.00 42 1009.8
20260507184653 26 334 43.5 53.1 0.00 0.00 0.00 41 1009.5
20260507184151 26 349 48.3 53.1 0.00 0.00 0.00 41 1009.4
20260507183647 26 334 46.7 54.7 0.00 0.00 0.00 41 1009.8
20260507183144 26 2 48.3 53.1 0.00 0.00 0.00 40 1009.5
20260507182641 27 347 40.2 53.1 0.00 0.00 0.00 39 1009.5
20260507182137 26 3 46.7 51.5 0.00 0.00 0.00 39 1009.4
20260507181633 26 342 37.0 48.3 0.00 0.00 0.00 41 1009.3
20260507181130 26 345 35.4 48.3 0.00 0.00 0.00 43 1009.3
20260507180626 26 4 37.0 49.9 0.00 0.00 0.00 44 1009.1
20260507180124 26 334 43.5 49.9 0.00 0.00 0.00 46 1009.2
20260507175619 26 342 37.0 41.8 0.00 0.00 0.00 44 1008.9
20260507175117 26 339 43.5 49.9 0.00 0.00 0.00 41 1009.1
20260507174614 27 340 40.2 51.5 0.00 0.00 0.00 41 1008.9
20260507174112 27 347 40.2 43.5 0.00 0.00 0.00 38 1009.1
20260507173609 27 355 35.4 41.8 0.00 0.00 0.00 37 1008.9
20260507173106 27 342 43.5 49.9 0.00 0.00 0.00 37 1008.8
20260507172601 27 351 37.0 41.8 0.00 0.00 0.00 39 1009.1
20260507172059 27 344 40.2 46.7 0.00 0.00 0.00 39 1008.8
20260507171554 26 352 33.8 37.0 0.00 0.00 0.00 40 1008.7
20260507171051 26 355 33.8 40.2 0.00 0.00 0.00 42 1008.9
20260507170548 25 329 17.7 25.7 0.00 0.00 0.00 46 1009.1
20260507170045 25 296 8.0 11.3 0.00 0.00 0.00 55 1009.6
20260507165541 26 278 9.7 16.1 0.00 0.00 0.00 51 1009.2
20260507165037 26 255 11.3 12.9 0.00 0.00 0.00 50 1009.3
20260507164534 26 277 6.4 9.7 0.00 0.00 0.00 52 1009.5
20260507164031 26 300 6.4 9.7 0.00 0.00 0.00 50 1009.5
20260507163528 26 301 9.7 11.3 0.00 0.00 0.00 49 1009.3